Regional Weather Roundup
Issued by NWS State College, PA

Home | Current Version | Previous Version | Graphics & Text | Print | Product List | Glossary On
Versions: 1 2 3 4 5 6 7 8 9 10 11 12 13 14 15 16 17 18 19 20 21 22 23 24 25 26 27 28 29 30 31 32 33 34 35 36 37 38 39 40 41 42 43 44 45 46 47 48 49 50
725
ASUS41 KCTP 241810
RWRCTP

REGIONAL WEATHER ROUNDUP
NATIONAL WEATHER SERVICE STATE COLLEGE PA
200 PM EDT TUE MAY 24 2016

Note: "fair" indicates few or no clouds below 12,000 feet with no
significant weather and/or obstructions to visibility.

* = STATION THAT DOES NOT REPORT PRECIPITATION /E.G. RAIN...SNOW...ETC/
    THUNDER OR FOG.

PAZ002>004-007>009-013>016-020>023-029>032-241900-
WESTERN PENNSYLVANIA

CITY           SKY/WX    TMP DP  RH WIND       PRES   REMARKS
ERIE           SUNNY     75  46  35 W12       30.05F
MEADVILLE      SUNNY     74  45  35 W10G18    30.06F
FRANKLIN*      SUNNY     75  45  33 NW12G28   30.09F
NEW CASTLE     FAIR      77  47  34 NW6G18    30.07F
BEAVER COUNTY  MOSUNNY   75  46  35 W7        30.08F
BUTLER*        MOSUNNY   75  46  35 W12       30.11S
PITTSBURGH INT MOSUNNY   78  45  30 W12G18    30.07F
PITTSBURGH     MOSUNNY   75  46  35 NW13      30.07F
INDIANA*       SUNNY     75  50  41 W9G18     30.10F
LATROBE        PTSUNNY   72  50  46 W12G17    30.08F
WASHINGTON CO* SUNNY     75  52  43 W9        30.10S
$$

PAZ004>006-010>012-017>019-024>028-033>037-041-042-045-046-049>053-241900-
CENTRAL PENNSYLVANIA

CITY           SKY/WX    TMP DP  RH WIND       PRES   REMARKS
BRADFORD         N/A     73  33  23 MISG      30.05F
DUBOIS         MOSUNNY   73  44  35 NW9G18    30.05F
CLEARFIELD     PTSUNNY   77  45  32 W13       30.03F
JOHNSTOWN      SUNNY     71  43  36 W16G23    30.09S
ALTOONA        MOSUNNY   76  43  30 NW14G21   30.05F
STATE COLLEGE  MOSUNNY   77  45  31 NW14      30.00F
WILLIAMSPORT   MOSUNNY   82  43  25 NW8       29.93F
SELINSGROVE    MOSUNNY   81  47  30 VRB6      29.95F
FT INDIANTOWN  MOSUNNY   80  46  30 NW8G21    29.94F
CAPITAL CITY   MOSUNNY   82  45  27 NW9       29.95F
HARRISBURG     MOSUNNY   79  45  29 NW14      29.94F
YORK           MOSUNNY   79  50  36 N9        29.97F
$$

PAZ038>040-043-044-047-048-054-055-060>062-067>071-241900-
EASTERN PENNSYLVANIA

CITY           SKY/WX    TMP DP  RH WIND       PRES   REMARKS
SCRANTON       SUNNY     80  39  23 N16G25    29.92F
MOUNT POCONO   MOSUNNY   69  36  29 N17G24    29.95S
ALLENTOWN      PTSUNNY   80  44  27 NW13G20   29.90F
QUAKERTOWN*    MOCLDY    75  46  35 NW5       29.92F
READING        MOSUNNY   82  46  28 NW16G24   29.92F
LANCASTER      MOSUNNY   79  51  37 W16G22    29.94F
COATESVILLE      N/A     79  63  57 NW12      29.96
POTTSTOWN      PTSUNNY   79  51  37 SW13G18   29.93F
BLUE BELL      MOSUNNY   75  52  43 W6        29.91F
DOYLESTOWN     PTSUNNY   75  47  36 SW7       29.91F
WILLOW GROVE   NOT AVBL
NORTH PHILA    PTSUNNY   77  54  44 SW9       29.94F
PHILADELPHIA   PTSUNNY   77  50  38 W16       29.94F
$$




USA.gov is the U.S. government's official web portal to all federal, state and local government web resources and services.